Location: Peyton Hall Observatory
(40.3466°N, 74.6516°W)
Time: 01:48:42
(UTC-05:00)

ISS - All Passes

Search period start: 03 December 2016 00:00
Search period end: 13 December 2016 00:00
Orbit: 401 x 410 km, 51.6° (Epoch: 03 December)

Date Brightness Start Highest point End Pass type
(mag) Time Alt. Az. Time Alt. Az. Time Alt. Az.
03 Dec - 01:05:14 10° W 01:07:39 19° SW 01:10:05 10° S night (unlit)
03 Dec - 16:08:49 10° S 16:11:06 18° SE 16:13:23 10° E daylight
03 Dec - 17:44:07 10° WSW 17:47:20 50° NNW 17:50:34 10° NE visible
03 Dec - 19:22:27 10° NW 19:24:27 15° NNW 19:26:26 10° NNE visible
03 Dec - 21:00:31 10° NNW 21:02:02 13° N 21:03:34 10° NE night (unlit)
03 Dec - 22:36:26 10° NW 22:39:23 29° NNE 22:42:20 10° E night (unlit)
04 Dec - 00:12:50 10° WNW 00:15:55 36° SW 00:18:58 10° SSE night (unlit)
04 Dec - 16:52:07 10° SW 16:55:24 87° SE 16:58:42 10° NE daylight
04 Dec - 18:29:50 10° WNW 18:32:16 19° NNW 18:34:43 10° NNE visible
04 Dec - 20:08:29 10° NNW 20:09:47 12° N 20:11:06 10° NNE night (unlit)
04 Dec - 21:44:42 10° NNW 21:47:17 20° NNE 21:49:51 10° ENE night (unlit)
04 Dec - 23:20:46 10° WNW 23:24:05 73° SW 23:27:22 10° SE night (unlit)
05 Dec - 16:00:24 10° SSW 16:03:31 43° SE 16:06:42 10° ENE daylight
05 Dec - 17:37:19 10° W 17:40:09 26° NNW 17:43:00 10° NE visible
05 Dec - 19:16:06 10° NNW 19:17:32 12° N 19:18:57 10° NNE visible
05 Dec - 20:52:59 10° NNW 20:55:07 16° NNE 20:57:13 10° NE night (unlit)
05 Dec - 22:28:52 10° NW 22:32:09 59° NE 22:35:25 10° ESE night (unlit)
06 Dec - 00:06:22 10° W 00:08:19 15° SW 00:10:16 10° SSW night (unlit)
06 Dec - 15:09:07 10° S 15:11:44 22° SE 15:14:24 10° E daylight
06 Dec - 16:44:57 10° WSW 16:48:05 40° NNW 16:51:14 10° NE daylight
06 Dec - 18:23:29 10° NW 18:25:17 14° NNW 18:27:05 10° NNE visible
06 Dec - 20:01:13 10° NNW 20:02:53 13° N 20:04:32 10° NE night (unlit)
06 Dec - 21:37:04 10° NW 21:40:08 34° NNE 21:43:12 10° E night (unlit)
06 Dec - 23:13:41 10° WNW 23:16:35 28° SW 23:19:27 10° SSE night (unlit)
07 Dec - 14:18:44 10° SSE 14:20:01 12° SE 14:21:18 10° ESE daylight
07 Dec - 15:52:49 10° WSW 15:56:05 73° NW 15:59:23 10° NE daylight
07 Dec - 17:30:47 10° WNW 17:33:03 17° NNW 17:35:18 10° NNE visible
07 Dec - 19:09:15 10° NNW 19:10:36 12° N 19:11:57 10° NNE visible
07 Dec - 20:45:18 10° NNW 20:48:01 23° NNE 20:50:46 10° E night (unlit)
07 Dec - 22:21:29 10° WNW 22:24:44 55° SW 22:27:58 10° SE night (unlit)
08 Dec - 15:00:56 10° SW 15:04:09 57° SE 15:07:24 10° ENE daylight
08 Dec - 16:38:11 10° WNW 16:40:51 22° NNW 16:43:33 10° NNE daylight
08 Dec - 18:16:58 10° NNW 18:18:18 12° N 18:19:38 10° NNE visible
08 Dec - 19:53:33 10° NNW 19:55:51 17° NNE 19:58:08 10° ENE night (unlit)
08 Dec - 21:29:29 10° NW 21:32:48 75° NE 21:36:05 10° ESE night (unlit)
08 Dec - 23:07:41 10° WSW 23:08:51 11° SW 23:10:01 10° SSW night (unlit)
09 Dec - 14:09:25 10° SSW 14:12:17 29° SE 14:15:11 10° ENE daylight
09 Dec - 15:45:42 10° W 15:48:44 33° NNW 15:51:46 10° NE daylight
09 Dec - 17:24:23 10° NW 17:26:00 13° N 17:27:38 10° NNE visible
09 Dec - 19:01:46 10° NNW 19:03:35 14° NNE 19:05:25 10° NE visible
09 Dec - 20:37:36 10° NW 20:40:47 41° NNE 20:43:56 10° ESE night (unlit)
09 Dec - 22:14:29 10° W 22:17:06 22° SW 22:19:42 10° S night (unlit)
10 Dec - 13:18:30 10° SSE 13:20:29 15° SE 13:22:29 10° E daylight
10 Dec - 14:53:26 10° WSW 14:56:39 57° NW 14:59:55 10° NE daylight
10 Dec - 16:31:39 10° NW 16:33:43 15° NNW 16:35:47 10° NNE daylight
10 Dec - 18:09:51 10° NNW 18:11:17 12° N 18:12:44 10° NNE visible
10 Dec - 19:45:47 10° NW 19:48:40 26° NNE 19:51:31 10° E night (unlit)
10 Dec - 21:22:06 10° WNW 21:25:15 42° SW 21:28:24 10° SSE night (unlit)
11 Dec - 14:01:24 10° SW 14:04:40 76° SE 14:07:57 10° NE daylight
11 Dec - 15:38:57 10° WNW 15:41:28 20° NNW 15:44:00 10° NNE daylight
11 Dec - 17:17:41 10° NNW 17:18:57 12° N 17:20:14 10° NNE visible
11 Dec - 18:54:00 10° NNW 18:56:28 19° NNE 18:58:56 10° ENE visible
11 Dec - 20:30:00 10° NW 20:33:19 85° SW 20:36:37 10° SE night (unlit)
12 Dec - 13:09:41 10° SSW 13:12:44 37° SE 13:15:48 10° ENE daylight
12 Dec - 14:46:23 10° W 14:49:16 28° NNW 14:52:12 10° NE daylight
12 Dec - 16:25:09 10° NNW 16:26:37 12° N 16:28:05 10° NNE daylight
12 Dec - 18:02:11 10° NNW 18:04:12 15° NNE 18:06:12 10° NE visible
12 Dec - 19:38:02 10° NW 19:41:17 51° NNE 19:44:31 10° ESE visible
12 Dec - 21:15:15 10° W 21:17:30 17° SW 21:19:45 10° S night (unlit)
